Location: Veytaux
(46.4185°N, 6.9320°E)
Time: 08:16:46
(UTC+00:00)

Cosmos 1603 - Pass Details

Date: 27 May 2022
Orbit: 829 x 861 km, 71.0° (Epoch: 01 July)

Event Time Altitude Azimuth Distance (km) Brightness Sun altitude
Exits shadow 02:06:01 12° 180° (S) 2,312 5.5 -13.6°
Maximum altitude 02:11:00 47° 109° (ESE) 1,099 4.4 -13.1°
Drops below altitude 10° 02:16:24 10° 37° (NE) 2,475 7.7 -12.5°
Sets 02:18:57 0° 31° (NNE) 3,420 8.8 -12.2°
